| time (UTC) | temp F | wind direction | speed MPH | gust MPH | rain 1hr in | rain 24hr in | rain mn in | humidity % | barometer mb |
| 20260506155115 | 41 | 337 | 0.0 | 5.0 | 0.00 | 0.00 | 0.00 | 92 | 850.2 |
| 20260506154615 | 42 | 180 | 2.0 | 4.0 | 0.00 | 0.00 | 0.00 | 92 | 850.1 |
| 20260506154115 | 42 | 180 | 0.0 | 1.0 | 0.00 | 0.00 | 0.00 | 91 | 850.1 |
| 20260506153615 | 42 | 180 | 1.0 | 3.0 | 0.00 | 0.00 | 0.00 | 91 | 850.1 |
| 20260506153115 | 43 | 180 | 0.0 | 4.0 | 0.00 | 0.00 | 0.00 | 91 | 850.2 |
| 20260506152615 | 43 | 180 | 2.0 | 4.0 | 0.00 | 0.00 | 0.00 | 90 | 850.1 |
| 20260506152115 | 43 | 180 | 0.0 | 0.0 | 0.00 | 0.00 | 0.00 | 91 | 849.9 |
| 20260506151615 | 43 | 135 | 0.0 | 0.0 | 0.00 | 0.00 | 0.00 | 91 | 849.9 |
| 20260506151115 | 43 | 270 | 0.0 | 2.0 | 0.00 | 0.00 | 0.00 | 92 | 849.8 |
| 20260506150615 | 43 | 202 | 0.0 | 0.0 | 0.00 | 0.00 | 0.00 | 92 | 850.1 |
| 20260506150115 | 43 | 315 | 0.0 | 0.0 | 0.00 | 0.00 | 0.00 | 92 | 849.9 |
| 20260506145615 | 43 | 337 | 0.0 | 5.0 | 0.00 | 0.00 | 0.00 | 93 | 849.9 |
| 20260506145115 | 43 | 247 | 0.0 | 0.0 | 0.00 | 0.00 | 0.00 | 93 | 849.9 |
| 20260506144615 | 43 | 135 | 0.0 | 1.0 | 0.00 | 0.00 | 0.00 | 93 | 849.9 |
| 20260506144115 | 43 | 135 | 0.0 | 4.0 | 0.00 | 0.00 | 0.00 | 94 | 849.8 |
| 20260506143615 | 43 | 202 | 0.0 | 8.0 | 0.00 | 0.00 | 0.00 | 94 | 849.9 |
| 20260506143115 | 42 | 180 | 3.0 | 3.0 | 0.00 | 0.00 | 0.00 | 94 | 849.8 |
| 20260506142615 | 42 | 0 | 0.0 | 8.0 | 0.00 | 0.00 | 0.00 | 95 | 849.8 |
| 20260506142115 | 41 | 202 | 0.0 | 0.0 | 0.00 | 0.00 | 0.00 | 95 | 849.9 |
| 20260506141615 | 41 | 315 | 0.0 | 0.0 | 0.00 | 0.00 | 0.00 | 95 | 849.9 |
| 20260506141115 | 39 | 315 | 0.0 | 0.0 | 0.00 | 0.00 | 0.00 | 95 | 849.8 |
| 20260506140615 | 38 | 315 | 0.0 | 3.0 | 0.00 | 0.00 | 0.00 | 95 | 849.7 |
| 20260506140115 | 38 | 292 | 0.0 | 4.0 | 0.00 | 0.00 | 0.00 | 95 | 850.0 |
| 20260506135615 | 38 | 292 | 0.0 | 1.0 | 0.00 | 0.00 | 0.00 | 95 | 849.9 |
| 20260506135115 | 39 | 315 | 0.0 | 0.0 | 0.00 | 0.00 | 0.00 | 95 | 849.8 |
| 20260506134615 | 39 | 315 | 0.0 | 0.0 | 0.00 | 0.00 | 0.00 | 95 | 849.9 |
| 20260506134115 | 39 | 292 | 0.0 | 0.0 | 0.00 | 0.00 | 0.00 | 95 | 849.9 |
| 20260506133615 | 39 | 337 | 0.0 | 0.0 | 0.00 | 0.00 | 0.00 | 95 | 850.0 |
| 20260506133115 | 40 | 315 | 0.0 | 0.0 | 0.00 | 0.00 | 0.00 | 95 | 850.0 |
| 20260506132615 | 41 | 180 | 0.0 | 0.0 | 0.00 | 0.00 | 0.00 | 95 | 850.2 |
| 20260506132115 | 41 | 180 | 0.0 | 0.0 | 0.00 | 0.00 | 0.00 | 95 | 850.4 |
| 20260506131615 | 41 | 180 | 0.0 | 5.0 | 0.00 | 0.00 | 0.00 | 95 | 850.4 |
| 20260506131115 | 41 | 292 | 0.0 | 8.0 | 0.00 | 0.00 | 0.00 | 95 | 850.4 |
| 20260506130615 | 41 | 225 | 0.0 | 8.0 | 0.00 | 0.00 | 0.00 | 95 | 850.5 |
| 20260506130115 | 41 | 180 | 0.0 | 6.0 | 0.00 | 0.00 | 0.00 | 95 | 850.4 |
| 20260506125615 | 41 | 180 | 0.0 | 6.0 | 0.00 | 0.00 | 0.00 | 95 | 850.4 |
| 20260506125115 | 41 | 180 | 0.0 | 3.0 | 0.00 | 0.00 | 0.00 | 95 | 850.4 |
| 20260506124615 | 41 | 180 | 0.0 | 4.0 | 0.00 | 0.00 | 0.00 | 95 | 850.6 |
| 20260506124115 | 41 | 180 | 3.0 | 10.0 | 0.00 | 0.00 | 0.00 | 95 | 850.4 |
| 20260506123615 | 41 | 180 | 1.0 | 9.0 | 0.00 | 0.00 | 0.00 | 95 | 850.0 |
| 20260506123115 | 41 | 157 | 3.0 | 11.0 | 0.00 | 0.00 | 0.00 | 95 | 849.9 |
| 20260506122615 | 41 | 180 | 10.0 | 11.0 | 0.00 | 0.00 | 0.00 | 95 | 849.8 |
| 20260506122115 | 41 | 225 | 7.0 | 11.0 | 0.00 | 0.00 | 0.00 | 95 | 849.8 |
| 20260506121616 | 41 | 180 | 4.0 | 8.0 | 0.00 | 0.00 | 0.00 | 95 | 849.8 |
| 20260506121116 | 41 | 180 | 7.0 | 11.0 | 0.00 | 0.00 | 0.00 | 95 | 850.1 |
| 20260506120616 | 41 | 202 | 0.0 | 12.0 | 0.00 | 0.00 | 0.00 | 95 | 849.9 |
| 20260506120116 | 41 | 180 | 0.0 | 9.0 | 0.00 | 0.00 | 0.00 | 95 | 850.0 |
| 20260506115616 | 41 | 180 | 0.0 | 8.0 | 0.00 | 0.00 | 0.00 | 95 | 849.8 |
| 20260506115116 | 41 | 180 | 7.0 | 12.0 | 0.00 | 0.00 | 0.00 | 95 | 849.7 |
| 20260506114616 | 41 | 180 | 0.0 | 10.0 | 0.00 | 0.00 | 0.00 | 95 | 849.7 |
| 20260506114116 | 41 | 180 | 5.0 | 6.0 | 0.00 | 0.00 | 0.00 | 95 | 849.8 |
| 20260506113616 | 41 | 180 | 5.0 | 10.0 | 0.00 | 0.00 | 0.00 | 95 | 849.8 |
| 20260506113116 | 41 | 180 | 3.0 | 7.0 | 0.00 | 0.00 | 0.00 | 95 | 849.9 |
| 20260506112616 | 41 | 180 | 2.0 | 10.0 | 0.00 | 0.00 | 0.00 | 95 | 849.9 |
| 20260506112116 | 41 | 180 | 3.0 | 10.0 | 0.00 | 0.00 | 0.00 | 95 | 850.0 |
| 20260506111616 | 41 | 157 | 3.0 | 6.0 | 0.00 | 0.00 | 0.00 | 95 | 850.1 |
| 20260506111116 | 41 | 180 | 0.0 | 7.0 | 0.00 | 0.00 | 0.00 | 95 | 850.2 |
| 20260506110616 | 41 | 180 | 4.0 | 6.0 | 0.00 | 0.00 | 0.00 | 95 | 850.2 |
| 20260506110116 | 41 | 180 | 5.0 | 6.0 | 0.00 | 0.00 | 0.00 | 95 | 850.2 |
| 20260506105616 | 41 | 202 | 4.0 | 7.0 | 0.00 | 0.00 | 0.00 | 95 | 850.3 |
| 20260506105116 | 40 | 180 | 5.0 | 6.0 | 0.00 | 0.00 | 0.00 | 95 | 850.4 |
| 20260506104616 | 40 | 180 | 3.0 | 6.0 | 0.00 | 0.00 | 0.00 | 95 | 850.4 |
| 20260506104116 | 40 | 180 | 2.0 | 8.0 | 0.00 | 0.00 | 0.00 | 95 | 850.5 |
| 20260506103616 | 40 | 180 | 7.0 | 7.0 | 0.00 | 0.00 | 0.00 | 95 | 850.5 |
| 20260506103116 | 40 | 180 | 4.0 | 6.0 | 0.00 | 0.00 | 0.00 | 95 | 850.3 |
| 20260506102616 | 40 | 180 | 4.0 | 8.0 | 0.00 | 0.00 | 0.00 | 95 | 850.5 |
| 20260506102116 | 40 | 180 | 4.0 | 7.0 | 0.00 | 0.00 | 0.00 | 95 | 850.4 |
| 20260506101616 | 40 | 180 | 4.0 | 7.0 | 0.00 | 0.00 | 0.00 | 95 | 850.5 |
| 20260506101116 | 40 | 180 | 3.0 | 8.0 | 0.00 | 0.00 | 0.00 | 95 | 850.4 |
| 20260506100616 | 39 | 180 | 3.0 | 7.0 | 0.00 | 0.00 | 0.00 | 95 | 850.4 |
| 20260506100116 | 39 | 180 | 3.0 | 8.0 | 0.00 | 0.00 | 0.00 | 95 | 850.4 |
| 20260506095616 | 39 | 180 | 4.0 | 10.0 | 0.00 | 0.00 | 0.00 | 95 | 850.5 |
| 20260506095116 | 39 | 180 | 2.0 | 6.0 | 0.00 | 0.00 | 0.00 | 95 | 850.6 |
| 20260506094616 | 39 | 180 | 0.0 | 6.0 | 0.00 | 0.00 | 0.00 | 95 | 850.5 |
| 20260506094116 | 38 | 180 | 6.0 | 6.0 | 0.00 | 0.00 | 0.00 | 95 | 850.4 |
| 20260506093616 | 38 | 180 | 1.0 | 7.0 | 0.00 | 0.00 | 0.00 | 95 | 850.4 |
| 20260506093116 | 39 | 180 | 1.0 | 7.0 | 0.00 | 0.00 | 0.00 | 95 | 850.3 |
| 20260506092616 | 39 | 202 | 3.0 | 5.0 | 0.00 | 0.00 | 0.00 | 95 | 850.4 |
| 20260506092116 | 39 | 180 | 4.0 | 6.0 | 0.00 | 0.00 | 0.00 | 95 | 850.5 |
| 20260506091616 | 39 | 180 | 5.0 | 6.0 | 0.00 | 0.00 | 0.00 | 95 | 850.4 |
| 20260506091116 | 38 | 180 | 3.0 | 6.0 | 0.00 | 0.00 | 0.00 | 95 | 850.4 |
| 20260506090616 | 38 | 157 | 2.0 | 2.0 | 0.00 | 0.00 | 0.00 | 95 | 850.6 |
| 20260506090116 | 38 | 112 | 0.0 | 5.0 | 0.00 | 0.00 | 0.00 | 95 | 850.3 |
| 20260506085616 | 38 | 157 | 0.0 | 6.0 | 0.00 | 0.00 | 0.00 | 95 | 850.3 |
| 20260506085116 | 39 | 180 | 1.0 | 4.0 | 0.00 | 0.00 | 0.00 | 95 | 850.3 |
| 20260506084616 | 38 | 337 | 0.0 | 7.0 | 0.00 | 0.00 | 0.00 | 95 | 850.4 |
| 20260506084116 | 38 | 180 | 1.0 | 6.0 | 0.00 | 0.00 | 0.00 | 95 | 850.3 |
| 20260506083616 | 38 | 180 | 0.0 | 7.0 | 0.00 | 0.00 | 0.00 | 95 | 850.3 |
| 20260506083116 | 38 | 157 | 1.0 | 6.0 | 0.00 | 0.00 | 0.00 | 95 | 850.3 |
| 20260506082616 | 38 | 180 | 3.0 | 5.0 | 0.00 | 0.00 | 0.00 | 95 | 850.4 |
| 20260506082116 | 38 | 202 | 0.0 | 2.0 | 0.00 | 0.00 | 0.00 | 95 | 850.3 |
| 20260506081616 | 38 | 180 | 0.0 | 1.0 | 0.00 | 0.00 | 0.00 | 95 | 850.4 |
| 20260506081116 | 38 | 180 | 0.0 | 2.0 | 0.00 | 0.00 | 0.00 | 95 | 850.3 |
| 20260506080616 | 39 | 0 | 0.0 | 5.0 | 0.00 | 0.00 | 0.00 | 95 | 850.3 |
| 20260506080116 | 39 | 202 | 2.0 | 6.0 | 0.00 | 0.00 | 0.00 | 95 | 850.2 |
| 20260506073116 | 38 | 180 | 6.0 | 6.0 | 0.00 | 0.00 | 0.00 | 95 | 850.5 |
| 20260506072616 | 38 | 180 | 3.0 | 5.0 | 0.00 | 0.00 | 0.00 | 95 | 850.5 |
| 20260506072116 | 37 | 180 | 4.0 | 6.0 | 0.00 | 0.00 | 0.00 | 95 | 850.5 |
| 20260506071616 | 37 | 180 | 2.0 | 5.0 | 0.00 | 0.00 | 0.00 | 95 | 850.5 |
| 20260506071116 | 37 | 180 | 3.0 | 7.0 | 0.00 | 0.00 | 0.00 | 95 | 850.6 |
| 20260506070616 | 37 | 180 | 4.0 | 4.0 | 0.00 | 0.00 | 0.00 | 95 | 850.6 |
| 20260506070116 | 37 | 180 | 0.0 | 5.0 | 0.00 | 0.00 | 0.00 | 94 | 850.5 |
| 20260506062116 | 37 | 202 | 0.0 | 0.0 | 0.00 | 0.00 | 0.00 | 94 | 851.1 |
| 20260506061616 | 37 | 180 | 0.0 | 0.0 | 0.00 | 0.00 | 0.00 | 94 | 851.2 |
| 20260506061116 | 37 | 180 | 0.0 | 0.0 | 0.00 | 0.00 | 0.00 | 95 | 851.0 |
| 20260506060616 | 37 | 180 | 0.0 | 0.0 | 0.00 | 0.00 | 0.00 | 95 | 851.2 |
| 20260506060116 | 37 | 180 | 0.0 | 0.0 | 0.00 | 0.00 | 0.00 | 95 | 851.1 |
| 20260506051116 | 38 | 157 | 1.0 | 6.0 | 0.00 | 0.00 | 0.00 | 95 | 850.7 |
| 20260506050616 | 38 | 180 | 5.0 | 8.0 | 0.00 | 0.00 | 0.00 | 95 | 850.7 |
| 20260506050116 | 38 | 180 | 0.0 | 6.0 | 0.00 | 0.00 | 0.00 | 94 | 850.7 |
| 20260506045116 | 38 | 202 | 0.0 | 4.0 | 0.00 | 0.00 | 0.00 | 94 | 851.0 |
| 20260506044616 | 38 | 180 | 0.0 | 4.0 | 0.00 | 0.00 | 0.00 | 94 | 851.1 |
| 20260506044116 | 38 | 180 | 3.0 | 4.0 | 0.00 | 0.00 | 0.00 | 94 | 851.0 |
| 20260506043616 | 38 | 180 | 4.0 | 4.0 | 0.00 | 0.00 | 0.00 | 94 | 851.1 |
| 20260506043116 | 38 | 112 | 0.0 | 4.0 | 0.00 | 0.00 | 0.00 | 94 | 851.0 |
| 20260506042616 | 38 | 180 | 2.0 | 4.0 | 0.00 | 0.00 | 0.00 | 95 | 851.0 |
| 20260506042116 | 37 | 67 | 0.0 | 3.0 | 0.00 | 0.00 | 0.00 | 95 | 850.8 |
| 20260506041616 | 37 | 157 | 2.0 | 4.0 | 0.00 | 0.00 | 0.00 | 95 | 850.7 |
| 20260506041116 | 37 | 157 | 1.0 | 4.0 | 0.00 | 0.00 | 0.00 | 95 | 850.9 |
| 20260506040616 | 37 | 337 | 0.0 | 6.0 | 0.00 | 0.00 | 0.00 | 95 | 850.9 |
| 20260506040116 | 37 | 202 | 0.0 | 5.0 | 0.00 | 0.00 | 0.00 | 95 | 850.9 |
| 20260506035616 | 37 | 180 | 0.0 | 4.0 | 0.00 | 0.00 | 0.00 | 95 | 850.8 |
| 20260506035116 | 37 | 135 | 0.0 | 6.0 | 0.00 | 0.00 | 0.00 | 95 | 851.2 |
| 20260506034616 | 37 | 180 | 4.0 | 4.0 | 0.00 | 0.00 | 0.00 | 95 | 851.1 |
| 20260506034116 | 37 | 225 | 2.0 | 4.0 | 0.00 | 0.00 | 0.00 | 95 | 851.2 |
| 20260506033618 | 37 | 315 | 2.0 | 8.0 | 0.00 | 0.00 | 0.00 | 95 | 851.1 |
| 20260506033116 | 37 | 315 | 0.0 | 7.0 | 0.00 | 0.00 | 0.00 | 95 | 851.4 |
| 20260506032616 | 37 | 90 | 0.0 | 6.0 | 0.00 | 0.00 | 0.00 | 95 | 851.4 |
| 20260506032116 | 37 | 180 | 0.0 | 2.0 | 0.00 | 0.00 | 0.00 | 94 | 851.7 |
| 20260506031617 | 37 | 225 | 0.0 | 6.0 | 0.00 | 0.00 | 0.00 | 94 | 851.5 |
| 20260506031116 | 37 | 157 | 0.0 | 4.0 | 0.00 | 0.00 | 0.00 | 94 | 851.6 |
| 20260506030616 | 37 | 202 | 0.0 | 2.0 | 0.00 | 0.00 | 0.00 | 94 | 851.5 |
| 20260506030116 | 37 | 337 | 0.0 | 0.0 | 0.00 | 0.00 | 0.00 | 94 | 851.6 |
| 20260506025616 | 37 | 337 | 0.0 | 0.0 | 0.00 | 0.00 | 0.00 | 94 | 851.8 |
| 20260506025116 | 37 | 202 | 0.0 | 1.0 | 0.00 | 0.00 | 0.00 | 94 | 851.7 |
| 20260506024616 | 37 | 0 | 0.0 | 5.0 | 0.00 | 0.00 | 0.00 | 94 | 851.7 |
| 20260506024116 | 37 | 270 | 0.0 | 5.0 | 0.00 | 0.00 | 0.00 | 94 | 851.8 |
| 20260506023617 | 37 | 180 | 0.0 | 2.0 | 0.00 | 0.00 | 0.00 | 94 | 851.7 |
| 20260506023117 | 38 | 0 | 0.0 | 3.0 | 0.00 | 0.00 | 0.00 | 94 | 851.7 |
| 20260506022617 | 37 | 180 | 1.0 | 3.0 | 0.00 | 0.00 | 0.00 | 94 | 851.7 |
| 20260506022117 | 37 | 337 | 0.0 | 4.0 | 0.00 | 0.00 | 0.00 | 94 | 851.9 |
| 20260506021617 | 37 | 180 | 0.0 | 2.0 | 0.00 | 0.00 | 0.00 | 94 | 851.9 |
| 20260506021117 | 37 | 180 | 0.0 | 3.0 | 0.00 | 0.00 | 0.00 | 94 | 851.7 |
| 20260506020617 | 37 | 180 | 0.0 | 3.0 | 0.00 | 0.00 | 0.00 | 94 | 851.8 |
| 20260506020117 | 37 | 180 | 0.0 | 1.0 | 0.00 | 0.00 | 0.00 | 93 | 851.9 |
| 20260506015617 | 37 | 180 | 0.0 | 0.0 | 0.00 | 0.00 | 0.00 | 93 | 851.9 |
| 20260506015117 | 38 | 202 | 0.0 | 0.0 | 0.00 | 0.00 | 0.00 | 93 | 851.8 |
| 20260506014617 | 38 | 292 | 0.0 | 0.0 | 0.00 | 0.00 | 0.00 | 93 | 851.9 |
| 20260506014117 | 38 | 337 | 0.0 | 0.0 | 0.00 | 0.00 | 0.00 | 94 | 852.0 |
| 20260506013617 | 37 | 247 | 0.0 | 0.0 | 0.00 | 0.00 | 0.00 | 94 | 851.9 |
| 20260506013117 | 37 | 315 | 0.0 | 0.0 | 0.00 | 0.00 | 0.00 | 94 | 851.9 |
| 20260506012617 | 37 | 180 | 0.0 | 0.0 | 0.00 | 0.00 | 0.00 | 94 | 852.2 |
| 20260506012117 | 37 | 337 | 0.0 | 0.0 | 0.00 | 0.00 | 0.00 | 94 | 852.3 |
| 20260506011617 | 37 | 180 | 0.0 | 0.0 | 0.00 | 0.00 | 0.00 | 94 | 852.2 |
| 20260506011117 | 37 | 202 | 0.0 | 0.0 | 0.00 | 0.00 | 0.00 | 94 | 852.3 |
| 20260506010617 | 37 | 157 | 0.0 | 0.0 | 0.00 | 0.00 | 0.00 | 94 | 852.6 |
| 20260506010117 | 37 | 0 | 0.0 | 0.0 | 0.00 | 0.00 | 0.00 | 94 | 852.4 |
| 20260506005617 | 37 | 0 | 0.0 | 0.0 | 0.00 | 0.00 | 0.00 | 94 | 852.3 |
| 20260506005117 | 37 | 45 | 0.0 | 0.0 | 0.00 | 0.00 | 0.00 | 94 | 852.2 |
| 20260506004617 | 37 | 45 | 0.0 | 0.0 | 0.00 | 0.00 | 0.00 | 94 | 852.3 |
| 20260506004117 | 37 | 45 | 0.0 | 0.0 | 0.00 | 0.00 | 0.00 | 94 | 852.4 |
| 20260506003617 | 37 | 45 | 0.0 | 0.0 | 0.00 | 0.00 | 0.00 | 94 | 852.5 |
| 20260506003117 | 37 | 45 | 0.0 | 0.0 | 0.00 | 0.00 | 0.00 | 94 | 852.5 |
| 20260506002617 | 37 | 67 | 0.0 | 0.0 | 0.00 | 0.00 | 0.00 | 94 | 852.5 |
| 20260506002117 | 37 | 67 | 0.0 | 0.0 | 0.00 | 0.00 | 0.00 | 94 | 852.6 |
| 20260506001617 | 37 | 67 | 0.0 | 0.0 | 0.00 | 0.00 | 0.00 | 94 | 852.5 |
| 20260506001117 | 37 | 67 | 0.0 | 0.0 | 0.00 | 0.00 | 0.00 | 94 | 852.6 |
| 20260506000617 | 37 | 135 | 0.0 | 0.0 | 0.00 | 0.00 | 0.00 | 94 | 852.5 |
| 20260506000117 | 37 | 112 | 0.0 | 0.0 | 0.00 | 0.00 | 0.00 | 94 | 852.4 |
| 20260505235617 | 37 | 0 | 0.0 | 0.0 | 0.00 | 0.00 | 0.00 | 94 | 852.5 |
| 20260505235117 | 38 | 247 | 0.0 | 0.0 | 0.00 | 0.00 | 0.00 | 94 | 852.6 |
| 20260505234617 | 38 | 0 | 0.0 | 0.0 | 0.00 | 0.00 | 0.00 | 94 | 852.6 |
| 20260505234117 | 38 | 292 | 0.0 | 0.0 | 0.00 | 0.00 | 0.00 | 95 | 852.7 |
| 20260505233617 | 38 | 292 | 0.0 | 0.0 | 0.00 | 0.00 | 0.00 | 94 | 852.6 |
| 20260505233117 | 38 | 315 | 0.0 | 0.0 | 0.00 | 0.00 | 0.00 | 95 | 852.8 |
| 20260505232617 | 38 | 315 | 0.0 | 0.0 | 0.00 | 0.00 | 0.00 | 95 | 852.9 |
| 20260505232117 | 38 | 292 | 0.0 | 0.0 | 0.00 | 0.00 | 0.00 | 94 | 852.8 |
| 20260505231617 | 38 | 270 | 0.0 | 0.0 | 0.00 | 0.00 | 0.00 | 95 | 852.9 |
| 20260505231117 | 38 | 337 | 0.0 | 0.0 | 0.00 | 0.00 | 0.00 | 95 | 852.9 |
| 20260505230617 | 38 | 270 | 0.0 | 0.0 | 0.00 | 0.00 | 0.00 | 95 | 852.9 |
| 20260505230117 | 38 | 315 | 0.0 | 3.0 | 0.00 | 0.00 | 0.00 | 95 | 852.9 |
| 20260505225617 | 38 | 135 | 0.0 | 2.0 | 0.00 | 0.00 | 0.00 | 94 | 852.8 |
| 20260505225117 | 38 | 180 | 0.0 | 0.0 | 0.00 | 0.00 | 0.00 | 94 | 853.1 |
| 20260505224617 | 39 | 337 | 0.0 | 0.0 | 0.00 | 0.00 | 0.00 | 94 | 853.1 |
| 20260505224117 | 39 | 180 | 0.0 | 0.0 | 0.00 | 0.00 | 0.00 | 94 | 853.1 |
| 20260505223617 | 39 | 157 | 0.0 | 0.0 | 0.00 | 0.00 | 0.00 | 94 | 853.2 |
| 20260505223117 | 39 | 225 | 0.0 | 0.0 | 0.00 | 0.00 | 0.00 | 95 | 853.2 |
| 20260505222617 | 39 | 180 | 0.0 | 0.0 | 0.00 | 0.00 | 0.00 | 95 | 853.2 |
| 20260505222117 | 39 | 180 | 0.0 | 0.0 | 0.00 | 0.00 | 0.00 | 95 | 853.2 |
| 20260505221617 | 39 | 202 | 0.0 | 0.0 | 0.00 | 0.00 | 0.00 | 95 | 853.3 |
| 20260505221117 | 39 | 180 | 0.0 | 0.0 | 0.00 | 0.00 | 0.00 | 95 | 853.3 |
| 20260505220617 | 38 | 180 | 0.0 | 0.0 | 0.00 | 0.00 | 0.00 | 95 | 853.3 |
| 20260505220117 | 38 | 180 | 0.0 | 0.0 | 0.00 | 0.00 | 0.00 | 95 | 853.4 |
| 20260505215617 | 38 | 180 | 0.0 | 0.0 | 0.00 | 0.00 | 0.00 | 95 | 853.4 |
| 20260505215117 | 38 | 180 | 0.0 | 0.0 | 0.00 | 0.00 | 0.00 | 95 | 853.4 |
| 20260505214617 | 38 | 180 | 0.0 | 0.0 | 0.00 | 0.00 | 0.00 | 95 | 853.4 |
| 20260505214117 | 38 | 315 | 0.0 | 0.0 | 0.00 | 0.00 | 0.00 | 95 | 853.4 |
| 20260505213617 | 38 | 315 | 0.0 | 0.0 | 0.00 | 0.00 | 0.00 | 95 | 853.5 |
| 20260505213119 | 37 | 270 | 0.0 | 0.0 | 0.00 | 0.00 | 0.00 | 95 | 853.6 |
| 20260505212617 | 37 | 337 | 0.0 | 0.0 | 0.00 | 0.00 | 0.00 | 95 | 853.6 |
| 20260505212117 | 37 | 337 | 0.0 | 0.0 | 0.00 | 0.00 | 0.00 | 95 | 853.6 |
| 20260505211617 | 37 | 337 | 0.0 | 0.0 | 0.00 | 0.00 | 0.00 | 95 | 853.5 |
| 20260505211117 | 37 | 247 | 0.0 | 0.0 | 0.00 | 0.00 | 0.00 | 95 | 853.7 |
| 20260505210617 | 37 | 292 | 0.0 | 0.0 | 0.00 | 0.00 | 0.00 | 95 | 853.9 |
| 20260505210117 | 37 | 292 | 0.0 | 2.0 | 0.00 | 0.00 | 0.00 | 95 | 853.9 |
| 20260505205617 | 37 | 315 | 2.0 | 4.0 | 0.00 | 0.00 | 0.00 | 95 | 853.9 |
| 20260505205117 | 38 | 315 | 0.0 | 63.0 | 0.00 | 0.00 | 0.00 | 95 | 853.7 |
| 20260505204617 | 38 | 337 | 0.0 | 0.0 | 0.00 | 0.00 | 0.00 | 95 | 853.6 |
| 20260505204117 | 38 | 315 | 0.0 | 110.0 | 0.00 | 0.00 | 0.00 | 95 | 853.7 |
| 20260505203617 | 38 | 315 | 0.0 | 0.0 | 0.00 | 0.00 | 0.00 | 95 | 854.0 |
| 20260505203117 | 38 | 292 | 0.0 | 0.0 | 0.00 | 0.00 | 0.00 | 95 | 854.1 |
| 20260505202458 | 38 | 270 | 3.0 | 4.0 | 0.00 | 0.00 | 0.00 | 95 | 853.9 |
| 20260505201958 | 38 | 315 | 0.0 | 0.0 | 0.00 | 0.00 | 0.00 | 95 | 853.9 |
| 20260505201458 | 38 | 337 | 0.0 | 28.0 | 0.00 | 0.00 | 0.00 | 95 | 854.1 |
| 20260505200958 | 39 | 315 | 0.0 | 4.0 | 0.00 | 0.00 | 0.00 | 95 | 855.0 |
| 20260505200458 | 39 | 315 | 0.0 | 4.0 | 0.00 | 0.00 | 0.00 | 95 | 854.0 |
| 20260505195958 | 39 | 315 | 0.0 | 0.0 | 0.00 | 0.00 | 0.00 | 95 | 854.0 |
| 20260505195458 | 39 | 292 | 0.0 | 9.0 | 0.00 | 0.00 | 0.00 | 95 | 853.9 |
| 20260505194958 | 39 | 247 | 0.0 | 4.0 | 0.00 | 0.00 | 0.00 | 95 | 853.8 |
| 20260505194458 | 39 | 337 | 0.0 | 35.0 | 0.00 | 0.00 | 0.00 | 95 | 853.9 |
| 20260505193958 | 39 | 315 | 0.0 | 0.0 | 0.00 | 0.00 | 0.00 | 95 | 853.8 |
| 20260505193458 | 39 | 315 | 0.0 | 7.0 | 0.00 | 0.00 | 0.00 | 95 | 853.8 |
| 20260505192958 | 39 | 112 | 0.0 | 0.0 | 0.00 | 0.00 | 0.00 | 95 | 853.8 |
| 20260505192458 | 39 | 22 | 0.0 | 0.0 | 0.00 | 0.00 | 0.00 | 95 | 853.7 |
| 20260505191958 | 39 | 202 | 0.0 | 1.0 | 0.00 | 0.00 | 0.00 | 95 | 853.8 |
| 20260505191458 | 39 | 247 | 1.0 | 1.0 | 0.00 | 0.00 | 0.00 | 95 | 853.9 |
| 20260505190958 | 39 | 22 | 0.0 | 0.0 | 0.00 | 0.00 | 0.00 | 95 | 853.8 |
| 20260505190458 | 39 | 337 | 0.0 | 1.0 | 0.00 | 0.00 | 0.00 | 95 | 853.8 |
| 20260505185958 | 39 | 270 | 0.0 | 4.0 | 0.00 | 0.00 | 0.00 | 95 | 853.8 |
| 20260505185458 | 39 | 337 | 4.0 | 4.0 | 0.00 | 0.00 | 0.00 | 95 | 853.8 |
| 20260505184958 | 39 | 180 | 0.0 | 4.0 | 0.00 | 0.00 | 0.00 | 95 | 853.8 |
| 20260505184458 | 39 | 180 | 0.0 | 0.0 | 0.00 | 0.00 | 0.00 | 95 | 853.9 |
| 20260505183958 | 39 | 180 | 2.0 | 7.0 | 0.00 | 0.00 | 0.00 | 95 | 853.6 |
| 20260505183458 | 39 | 202 | 1.0 | 20.0 | 0.00 | 0.00 | 0.00 | 95 | 853.7 |
| 20260505182958 | 39 | 180 | 0.0 | 3.0 | 0.00 | 0.00 | 0.00 | 95 | 853.8 |
| 20260505182458 | 39 | 157 | 0.0 | 4.0 | 0.00 | 0.00 | 0.00 | 95 | 853.5 |
| 20260505181958 | 39 | 180 | 0.0 | 15.0 | 0.00 | 0.00 | 0.00 | 95 | 853.6 |
| 20260505181458 | 39 | 180 | 4.0 | 6.0 | 0.00 | 0.00 | 0.00 | 95 | 853.8 |
| 20260505180958 | 39 | 180 | 0.0 | 0.0 | 0.00 | 0.00 | 0.00 | 95 | 853.4 |
| 20260505180458 | 39 | 180 | 0.0 | 2.0 | 0.00 | 0.00 | 0.00 | 95 | 853.8 |
| 20260505175958 | 39 | 180 | 0.0 | 2.0 | 0.00 | 0.00 | 0.00 | 95 | 853.4 |
| 20260505175458 | 39 | 180 | 0.0 | 0.0 | 0.00 | 0.00 | 0.00 | 95 | 853.5 |
| 20260505174958 | 39 | 180 | 1.0 | 2.0 | 0.00 | 0.00 | 0.00 | 95 | 853.2 |
| 20260505174458 | 39 | 180 | 0.0 | 6.0 | 0.00 | 0.00 | 0.00 | 95 | 853.3 |
| 20260505173958 | 39 | 180 | 0.0 | 4.0 | 0.00 | 0.00 | 0.00 | 95 | 853.4 |
| 20260505173458 | 39 | 180 | 0.0 | 0.0 | 0.00 | 0.00 | 0.00 | 95 | 853.3 |
| 20260505172958 | 39 | 180 | 0.0 | 0.0 | 0.00 | 0.00 | 0.00 | 95 | 853.5 |
| 20260505172458 | 39 | 180 | 0.0 | 2.0 | 0.00 | 0.00 | 0.00 | 95 | 853.3 |
| 20260505171958 | 39 | 180 | 0.0 | 57.0 | 0.00 | 0.00 | 0.00 | 95 | 853.3 |
| 20260505171458 | 39 | 180 | 0.0 | 10.0 | 0.00 | 0.00 | 0.00 | 95 | 853.5 |
| 20260505170958 | 40 | 180 | 0.0 | 6.0 | 0.00 | 0.00 | 0.00 | 95 | 853.5 |
| 20260505170458 | 40 | 0 | 3.0 | 5.0 | 0.00 | 0.00 | 0.00 | 95 | 853.4 |
| 20260505165958 | 40 | 180 | 2.0 | 6.0 | 0.00 | 0.00 | 0.00 | 94 | 853.5 |
| 20260505165458 | 40 | 180 | 3.0 | 6.0 | 0.00 | 0.00 | 0.00 | 94 | 853.4 |
| 20260505164958 | 40 | 180 | 5.0 | 5.0 | 0.00 | 0.00 | 0.00 | 94 | 853.0 |
| 20260505164458 | 40 | 112 | 0.0 | 3.0 | 0.00 | 0.00 | 0.00 | 94 | 853.1 |
| 20260505163958 | 40 | 22 | 0.0 | 3.0 | 0.00 | 0.00 | 0.00 | 94 | 853.0 |
| 20260505163458 | 40 | 180 | 0.0 | 5.0 | 0.00 | 0.00 | 0.00 | 94 | 853.1 |
| 20260505162958 | 40 | 180 | 4.0 | 4.0 | 0.00 | 0.00 | 0.00 | 95 | 853.1 |
| 20260505162458 | 40 | 180 | 1.0 | 4.0 | 0.00 | 0.00 | 0.00 | 94 | 853.1 |
| 20260505161958 | 40 | 180 | 0.0 | 5.0 | 0.00 | 0.00 | 0.00 | 94 | 853.2 |
| 20260505161458 | 40 | 180 | 0.0 | 5.0 | 0.00 | 0.00 | 0.00 | 94 | 853.2 |
| 20260505160958 | 40 | 0 | 0.0 | 0.0 | 0.00 | 0.00 | 0.00 | 94 | 853.3 |
| 20260505160458 | 40 | 180 | 2.0 | 5.0 | 0.00 | 0.00 | 0.00 | 94 | 853.3 |